| time (UTC) | temp F | wind direction | speed MPH | gust MPH | rain 1hr in | rain 24hr in | rain mn in | humidity % | barometer mb |
| 20260509053058 | 56 | 164 | 0.0 | 0.0 | 0.00 | 0.00 | 0.00 | 93 | 1018.1 |
| 20260509052555 | 57 | 165 | 0.0 | 0.0 | 0.00 | 0.00 | 0.00 | 93 | 1018.0 |
| 20260509052053 | 57 | 165 | 0.0 | 0.0 | 0.00 | 0.00 | 0.00 | 92 | 1018.1 |
| 20260509051551 | 57 | 167 | 0.0 | 0.0 | 0.00 | 0.00 | 0.00 | 92 | 1018.3 |
| 20260509051047 | 57 | 168 | 0.0 | 0.0 | 0.00 | 0.00 | 0.00 | 92 | 1018.3 |
| 20260509050544 | 57 | 171 | 0.0 | 0.0 | 0.00 | 0.00 | 0.00 | 92 | 1018.1 |
| 20260509050041 | 57 | 170 | 0.0 | 0.0 | 0.00 | 0.00 | 0.00 | 92 | 1018.0 |
| 20260509045538 | 57 | 173 | 0.0 | 0.0 | 0.00 | 0.00 | 0.00 | 92 | 1018.2 |
| 20260509045035 | 57 | 175 | 0.0 | 0.0 | 0.00 | 0.00 | 0.00 | 92 | 1018.1 |
| 20260509044533 | 57 | 178 | 0.0 | 0.0 | 0.00 | 0.00 | 0.00 | 92 | 1018.0 |
| 20260509044030 | 57 | 187 | 0.0 | 0.0 | 0.00 | 0.00 | 0.00 | 91 | 1017.9 |
| 20260509043526 | 57 | 160 | 0.0 | 0.0 | 0.00 | 0.00 | 0.00 | 91 | 1017.8 |
| 20260509043022 | 58 | 164 | 0.0 | 0.0 | 0.00 | 0.00 | 0.00 | 91 | 1017.7 |
| 20260509042518 | 58 | 164 | 0.0 | 0.0 | 0.00 | 0.00 | 0.00 | 91 | 1017.8 |
| 20260509042014 | 58 | 165 | 0.0 | 0.0 | 0.00 | 0.00 | 0.00 | 91 | 1017.7 |
| 20260509041511 | 58 | 170 | 0.0 | 0.0 | 0.00 | 0.00 | 0.00 | 91 | 1017.7 |
| 20260509041009 | 58 | 172 | 0.0 | 0.0 | 0.00 | 0.00 | 0.00 | 91 | 1017.7 |
| 20260509040507 | 58 | 171 | 0.0 | 0.0 | 0.00 | 0.00 | 0.00 | 91 | 1017.5 |
| 20260509040004 | 57 | 170 | 0.0 | 0.0 | 0.00 | 0.00 | 0.00 | 90 | 1017.5 |
| 20260509035501 | 58 | 170 | 0.0 | 0.0 | 0.00 | 0.00 | 0.00 | 91 | 1017.5 |
| 20260509034957 | 58 | 163 | 0.0 | 0.0 | 0.00 | 0.00 | 0.00 | 90 | 1017.5 |
| 20260509034455 | 58 | 163 | 0.0 | 0.0 | 0.00 | 0.00 | 0.00 | 90 | 1017.7 |
| 20260509033952 | 58 | 163 | 0.0 | 0.0 | 0.00 | 0.00 | 0.00 | 90 | 1017.6 |
| 20260509033449 | 58 | 166 | 0.0 | 0.0 | 0.00 | 0.00 | 0.00 | 89 | 1017.6 |
| 20260509032945 | 59 | 169 | 0.0 | 0.0 | 0.00 | 0.00 | 0.00 | 89 | 1017.6 |
| 20260509032443 | 59 | 157 | 0.0 | 0.0 | 0.00 | 0.00 | 0.00 | 88 | 1017.5 |
| 20260509031940 | 59 | 128 | 0.0 | 0.0 | 0.00 | 0.00 | 0.00 | 87 | 1017.4 |
| 20260509031438 | 59 | 31 | 0.0 | 1.0 | 0.00 | 0.00 | 0.00 | 87 | 1017.6 |
| 20260509030935 | 59 | 26 | 0.0 | 1.0 | 0.00 | 0.00 | 0.00 | 87 | 1017.4 |
| 20260509030433 | 60 | 41 | 0.0 | 2.0 | 0.00 | 0.00 | 0.00 | 86 | 1017.5 |
| 20260509025930 | 60 | 49 | 0.0 | 2.0 | 0.00 | 0.00 | 0.00 | 86 | 1017.5 |
| 20260509025425 | 60 | 344 | 1.0 | 1.0 | 0.00 | 0.00 | 0.00 | 86 | 1017.4 |
| 20260509024921 | 60 | 32 | 2.0 | 3.0 | 0.00 | 0.00 | 0.00 | 85 | 1017.4 |
| 20260509024417 | 61 | 163 | 0.0 | 0.0 | 0.00 | 0.00 | 0.00 | 85 | 1017.2 |
| 20260509023914 | 61 | 167 | 0.0 | 0.0 | 0.00 | 0.00 | 0.00 | 85 | 1017.1 |
| 20260509023411 | 61 | 176 | 0.0 | 1.0 | 0.00 | 0.00 | 0.00 | 85 | 1016.9 |
| 20260509022908 | 61 | 180 | 0.0 | 0.0 | 0.00 | 0.00 | 0.00 | 84 | 1017.1 |
| 20260509022405 | 61 | 184 | 0.0 | 0.0 | 0.00 | 0.00 | 0.00 | 84 | 1017.0 |
| 20260509021902 | 61 | 210 | 0.0 | 1.0 | 0.00 | 0.00 | 0.00 | 84 | 1016.7 |
| 20260509021359 | 61 | 178 | 0.0 | 2.0 | 0.00 | 0.00 | 0.00 | 84 | 1017.1 |
| 20260509020857 | 62 | 184 | 1.0 | 1.0 | 0.00 | 0.00 | 0.00 | 83 | 1017.3 |
| 20260509020355 | 62 | 133 | 0.0 | 0.0 | 0.00 | 0.00 | 0.00 | 83 | 1017.2 |
| 20260509015852 | 62 | 123 | 0.0 | 2.0 | 0.00 | 0.00 | 0.00 | 83 | 1017.2 |
| 20260509015350 | 62 | 191 | 0.0 | 1.0 | 0.00 | 0.00 | 0.00 | 82 | 1017.1 |
| 20260509014846 | 63 | 215 | 2.0 | 2.0 | 0.00 | 0.00 | 0.00 | 81 | 1017.1 |
| 20260509014343 | 63 | 59 | 1.0 | 2.0 | 0.00 | 0.00 | 0.00 | 80 | 1016.9 |
| 20260509013839 | 64 | 136 | 0.0 | 3.0 | 0.00 | 0.00 | 0.00 | 79 | 1017.2 |
| 20260509013336 | 64 | 180 | 0.0 | 0.0 | 0.00 | 0.00 | 0.00 | 78 | 1017.1 |
| 20260509012832 | 64 | 276 | 3.0 | 6.0 | 0.00 | 0.00 | 0.00 | 78 | 1017.2 |
| 20260509012329 | 65 | 229 | 3.0 | 4.0 | 0.00 | 0.00 | 0.00 | 77 | 1017.3 |
| 20260509011827 | 65 | 203 | 1.0 | 3.0 | 0.00 | 0.00 | 0.00 | 77 | 1017.0 |
| 20260509011324 | 66 | 355 | 1.0 | 3.0 | 0.00 | 0.00 | 0.00 | 77 | 1017.2 |
| 20260509010821 | 65 | 169 | 2.0 | 6.0 | 0.00 | 0.00 | 0.00 | 77 | 1017.1 |
| 20260509010319 | 66 | 278 | 2.0 | 3.0 | 0.00 | 0.00 | 0.00 | 76 | 1017.0 |
| 20260509005815 | 66 | 207 | 1.0 | 2.0 | 0.00 | 0.00 | 0.00 | 76 | 1017.1 |
| 20260509005313 | 66 | 256 | 4.0 | 6.0 | 0.00 | 0.00 | 0.00 | 76 | 1016.9 |
| 20260509004808 | 66 | 27 | 1.0 | 3.0 | 0.00 | 0.00 | 0.00 | 76 | 1017.0 |
| 20260509004304 | 66 | 305 | 1.0 | 7.0 | 0.00 | 0.00 | 0.00 | 76 | 1017.0 |
| 20260509003803 | 66 | 265 | 1.0 | 6.0 | 0.00 | 0.00 | 0.00 | 76 | 1017.0 |
| 20260509003300 | 66 | 277 | 2.0 | 6.0 | 0.00 | 0.00 | 0.00 | 75 | 1017.2 |
| 20260509002757 | 67 | 182 | 0.0 | 3.0 | 0.00 | 0.00 | 0.00 | 74 | 1017.1 |
| 20260509002255 | 67 | 297 | 2.0 | 3.0 | 0.00 | 0.00 | 0.00 | 74 | 1017.0 |
| 20260509001752 | 67 | 267 | 5.0 | 7.0 | 0.00 | 0.00 | 0.00 | 74 | 1017.1 |
| 20260509001248 | 68 | 159 | 0.0 | 4.0 | 0.00 | 0.00 | 0.00 | 72 | 1017.1 |
| 20260509000746 | 69 | 149 | 0.0 | 4.0 | 0.00 | 0.00 | 0.00 | 72 | 1017.2 |
| 20260509000242 | 68 | 224 | 1.0 | 3.0 | 0.00 | 0.00 | 0.00 | 72 | 1017.2 |
| 20260508235739 | 69 | 211 | 2.0 | 4.0 | 0.00 | 0.00 | 0.00 | 72 | 1017.3 |
| 20260508235230 | 68 | 60 | 1.0 | 7.0 | 0.00 | 0.00 | 0.00 | 72 | 1017.2 |
| 20260508234727 | 69 | 55 | 1.0 | 2.0 | 0.00 | 0.00 | 0.00 | 71 | 1017.1 |
| 20260508234223 | 69 | 168 | 2.0 | 8.0 | 0.00 | 0.00 | 0.00 | 71 | 1017.2 |
| 20260508233718 | 70 | 219 | 2.0 | 3.0 | 0.00 | 0.00 | 0.00 | 70 | 1017.3 |
| 20260508233215 | 69 | 59 | 2.0 | 4.0 | 0.00 | 0.00 | 0.00 | 71 | 1017.5 |
| 20260508232713 | 70 | 167 | 1.0 | 7.0 | 0.00 | 0.00 | 0.00 | 70 | 1017.2 |
| 20260508232209 | 70 | 300 | 2.0 | 4.0 | 0.00 | 0.00 | 0.00 | 71 | 1017.3 |
| 20260508231707 | 70 | 273 | 2.0 | 3.0 | 0.00 | 0.00 | 0.00 | 69 | 1017.6 |
| 20260508231204 | 70 | 248 | 5.0 | 9.0 | 0.00 | 0.00 | 0.00 | 71 | 1017.5 |
| 20260508230701 | 70 | 279 | 4.0 | 7.0 | 0.00 | 0.00 | 0.00 | 69 | 1017.7 |
| 20260508230156 | 71 | 166 | 2.0 | 6.0 | 0.00 | 0.00 | 0.00 | 68 | 1017.6 |
| 20260508225655 | 71 | 264 | 4.0 | 4.0 | 0.00 | 0.00 | 0.00 | 69 | 1017.5 |
| 20260508225150 | 71 | 257 | 1.0 | 3.0 | 0.00 | 0.00 | 0.00 | 68 | 1017.8 |
| 20260508224649 | 71 | 62 | 1.0 | 6.0 | 0.00 | 0.00 | 0.00 | 68 | 1017.7 |
| 20260508224146 | 72 | 243 | 0.0 | 4.0 | 0.00 | 0.00 | 0.00 | 68 | 1017.8 |
| 20260508223643 | 72 | 293 | 2.0 | 4.0 | 0.00 | 0.00 | 0.00 | 67 | 1017.8 |
| 20260508223141 | 72 | 188 | 6.0 | 8.0 | 0.00 | 0.00 | 0.00 | 67 | 1018.0 |
| 20260508222638 | 73 | 12 | 1.0 | 4.0 | 0.00 | 0.00 | 0.00 | 66 | 1018.0 |
| 20260508222135 | 72 | 114 | 1.0 | 4.0 | 0.00 | 0.00 | 0.00 | 67 | 1017.9 |
| 20260508221631 | 71 | 149 | 2.0 | 7.0 | 0.00 | 0.00 | 0.00 | 69 | 1018.1 |
| 20260508221127 | 72 | 340 | 2.0 | 4.0 | 0.00 | 0.00 | 0.00 | 67 | 1018.0 |
| 20260508220624 | 72 | 4 | 3.0 | 3.0 | 0.00 | 0.00 | 0.00 | 68 | 1018.2 |
| 20260508220120 | 72 | 140 | 2.0 | 3.0 | 0.00 | 0.00 | 0.00 | 68 | 1018.1 |
| 20260508215617 | 72 | 167 | 0.0 | 4.0 | 0.00 | 0.00 | 0.00 | 67 | 1018.2 |
| 20260508215114 | 72 | 236 | 4.0 | 6.0 | 0.00 | 0.00 | 0.00 | 67 | 1018.3 |
| 20260508214611 | 72 | 79 | 1.0 | 6.0 | 0.00 | 0.00 | 0.00 | 68 | 1018.5 |
| 20260508214108 | 71 | 283 | 4.0 | 6.0 | 0.00 | 0.00 | 0.00 | 67 | 1018.3 |
| 20260508213604 | 72 | 59 | 2.0 | 2.0 | 0.00 | 0.00 | 0.00 | 68 | 1018.4 |
| 20260508213101 | 71 | 316 | 1.0 | 4.0 | 0.00 | 0.00 | 0.00 | 70 | 1018.4 |
| 20260508212557 | 72 | 84 | 1.0 | 6.0 | 0.00 | 0.00 | 0.00 | 68 | 1018.5 |
| 20260508212054 | 71 | 190 | 2.0 | 6.0 | 0.00 | 0.00 | 0.00 | 69 | 1018.7 |
| 20260508211549 | 72 | 291 | 3.0 | 6.0 | 0.00 | 0.00 | 0.00 | 68 | 1018.6 |
| 20260508211045 | 71 | 199 | 4.0 | 4.0 | 0.00 | 0.00 | 0.00 | 67 | 1018.5 |
| 20260508210542 | 72 | 251 | 4.0 | 7.0 | 0.00 | 0.00 | 0.00 | 68 | 1018.8 |
| 20260508210040 | 71 | 201 | 2.0 | 6.0 | 0.00 | 0.00 | 0.00 | 68 | 1018.9 |
| 20260508205537 | 72 | 259 | 6.0 | 8.0 | 0.00 | 0.00 | 0.00 | 67 | 1018.9 |
| 20260508205033 | 71 | 225 | 2.0 | 9.0 | 0.00 | 0.00 | 0.00 | 70 | 1019.0 |
| 20260508204530 | 72 | 184 | 2.0 | 7.0 | 0.00 | 0.00 | 0.00 | 68 | 1019.0 |
| 20260508204025 | 72 | 265 | 2.0 | 4.0 | 0.00 | 0.00 | 0.00 | 67 | 1018.9 |
| 20260508203522 | 71 | 31 | 1.0 | 6.0 | 0.00 | 0.00 | 0.00 | 69 | 1019.0 |
| 20260508203018 | 71 | 28 | 2.0 | 4.0 | 0.00 | 0.00 | 0.00 | 68 | 1019.0 |
| 20260508202515 | 72 | 134 | 0.0 | 6.0 | 0.00 | 0.00 | 0.00 | 69 | 1019.0 |
| 20260508202012 | 72 | 134 | 1.0 | 3.0 | 0.00 | 0.00 | 0.00 | 68 | 1019.0 |
| 20260508201509 | 71 | 202 | 5.0 | 6.0 | 0.00 | 0.00 | 0.00 | 68 | 1019.0 |
| 20260508201005 | 72 | 170 | 0.0 | 3.0 | 0.00 | 0.00 | 0.00 | 67 | 1019.2 |
| 20260508200502 | 73 | 138 | 0.0 | 3.0 | 0.00 | 0.00 | 0.00 | 66 | 1019.6 |
| 20260508195956 | 72 | 215 | 1.0 | 4.0 | 0.00 | 0.00 | 0.00 | 68 | 1019.4 |
| 20260508195455 | 71 | 223 | 4.0 | 6.0 | 0.00 | 0.00 | 0.00 | 67 | 1019.4 |
| 20260508194950 | 72 | 197 | 2.0 | 3.0 | 0.00 | 0.00 | 0.00 | 66 | 1019.6 |
| 20260508194448 | 72 | 171 | 1.0 | 6.0 | 0.00 | 0.00 | 0.00 | 67 | 1019.6 |
| 20260508193945 | 71 | 52 | 1.0 | 3.0 | 0.00 | 0.00 | 0.00 | 69 | 1019.6 |
| 20260508193441 | 71 | 99 | 1.0 | 8.0 | 0.00 | 0.00 | 0.00 | 69 | 1019.6 |
| 20260508192938 | 70 | 267 | 3.0 | 7.0 | 0.00 | 0.00 | 0.00 | 68 | 1019.2 |
| 20260508192435 | 70 | 203 | 3.0 | 4.0 | 0.00 | 0.00 | 0.00 | 68 | 1019.4 |
| 20260508191932 | 70 | 125 | 1.0 | 2.0 | 0.00 | 0.00 | 0.00 | 69 | 1019.6 |
| 20260508191429 | 70 | 259 | 4.0 | 6.0 | 0.00 | 0.00 | 0.00 | 68 | 1019.8 |
| 20260508190925 | 69 | 183 | 3.0 | 6.0 | 0.00 | 0.00 | 0.00 | 71 | 1019.4 |
| 20260508190423 | 69 | 182 | 1.0 | 2.0 | 0.00 | 0.00 | 0.00 | 70 | 1019.6 |
| 20260508185919 | 69 | 210 | 1.0 | 2.0 | 0.00 | 0.00 | 0.00 | 70 | 1019.6 |
| 20260508185417 | 70 | 145 | 1.0 | 2.0 | 0.00 | 0.00 | 0.00 | 69 | 1019.3 |
| 20260508184914 | 69 | 31 | 4.0 | 6.0 | 0.00 | 0.00 | 0.00 | 71 | 1020.1 |
| 20260508184411 | 68 | 210 | 3.0 | 6.0 | 0.00 | 0.00 | 0.00 | 73 | 1020.0 |
| 20260508183908 | 69 | 269 | 3.0 | 4.0 | 0.00 | 0.00 | 0.00 | 71 | 1020.0 |
| 20260508183404 | 69 | 39 | 0.0 | 2.0 | 0.00 | 0.00 | 0.00 | 72 | 1019.9 |
| 20260508182859 | 69 | 147 | 1.0 | 2.0 | 0.00 | 0.00 | 0.00 | 72 | 1019.8 |
| 20260508182357 | 68 | 96 | 0.0 | 3.0 | 0.00 | 0.00 | 0.00 | 72 | 1020.0 |
| 20260508181852 | 68 | 283 | 3.0 | 7.0 | 0.00 | 0.00 | 0.00 | 73 | 1020.0 |
| 20260508181349 | 69 | 212 | 0.0 | 1.0 | 0.00 | 0.00 | 0.00 | 72 | 1020.2 |
| 20260508180846 | 67 | 229 | 1.0 | 3.0 | 0.00 | 0.00 | 0.00 | 74 | 1020.2 |
| 20260508180343 | 66 | 155 | 0.0 | 2.0 | 0.00 | 0.00 | 0.00 | 76 | 1020.5 |
| 20260508175839 | 66 | 269 | 3.0 | 6.0 | 0.00 | 0.00 | 0.00 | 75 | 1020.4 |
| 20260508175336 | 66 | 232 | 3.0 | 4.0 | 0.00 | 0.00 | 0.00 | 75 | 1020.4 |
| 20260508174834 | 66 | 59 | 0.0 | 1.0 | 0.00 | 0.00 | 0.00 | 76 | 1020.3 |
| 20260508174331 | 66 | 61 | 0.0 | 4.0 | 0.00 | 0.00 | 0.00 | 77 | 1020.4 |
| 20260508173827 | 65 | 209 | 1.0 | 2.0 | 0.00 | 0.00 | 0.00 | 78 | 1020.3 |
| 20260508173325 | 64 | 119 | 0.0 | 2.0 | 0.00 | 0.00 | 0.00 | 80 | 1020.5 |
| 20260508172820 | 62 | 297 | 1.0 | 2.0 | 0.00 | 0.00 | 0.00 | 82 | 1020.3 |
| 20260508172318 | 63 | 212 | 1.0 | 4.0 | 0.00 | 0.00 | 0.00 | 82 | 1020.4 |
| 20260508171814 | 63 | 191 | 2.0 | 3.0 | 0.00 | 0.00 | 0.00 | 82 | 1020.3 |
| 20260508171310 | 62 | 326 | 1.0 | 2.0 | 0.00 | 0.00 | 0.00 | 83 | 1020.4 |
| 20260508170807 | 62 | 22 | 0.0 | 3.0 | 0.00 | 0.00 | 0.00 | 84 | 1020.3 |
| 20260508170306 | 62 | 214 | 1.0 | 3.0 | 0.00 | 0.00 | 0.00 | 84 | 1020.5 |
| 20260508165802 | 61 | 142 | 0.0 | 1.0 | 0.00 | 0.00 | 0.00 | 86 | 1020.3 |
| 20260508165259 | 62 | 258 | 2.0 | 4.0 | 0.00 | 0.00 | 0.00 | 85 | 1020.4 |
| 20260508164755 | 61 | 145 | 1.0 | 1.0 | 0.00 | 0.00 | 0.00 | 85 | 1020.5 |
| 20260508164252 | 60 | 144 | 0.0 | 0.0 | 0.00 | 0.00 | 0.00 | 87 | 1020.1 |
| 20260508163750 | 60 | 202 | 1.0 | 3.0 | 0.00 | 0.00 | 0.00 | 87 | 1020.4 |
| 20260508163247 | 60 | 139 | 0.0 | 3.0 | 0.00 | 0.00 | 0.00 | 88 | 1020.2 |
| 20260508162743 | 60 | 179 | 2.0 | 2.0 | 0.00 | 0.00 | 0.00 | 87 | 1020.6 |
| 20260508162240 | 60 | 96 | 0.0 | 1.0 | 0.00 | 0.00 | 0.00 | 88 | 1020.3 |
| 20260508161737 | 59 | 153 | 0.0 | 1.0 | 0.00 | 0.00 | 0.00 | 88 | 1020.3 |
| 20260508161234 | 59 | 100 | 1.0 | 2.0 | 0.00 | 0.00 | 0.00 | 90 | 1020.2 |
| 20260508160732 | 59 | 90 | 0.0 | 1.0 | 0.00 | 0.00 | 0.00 | 89 | 1020.1 |
| 20260508160230 | 59 | 101 | 1.0 | 2.0 | 0.00 | 0.00 | 0.00 | 89 | 1020.2 |
| 20260508155726 | 59 | 164 | 0.0 | 1.0 | 0.00 | 0.00 | 0.00 | 89 | 1020.1 |
| 20260508155223 | 59 | 151 | 0.0 | 0.0 | 0.00 | 0.00 | 0.00 | 90 | 1020.4 |
| 20260508154720 | 59 | 100 | 0.0 | 1.0 | 0.00 | 0.00 | 0.00 | 90 | 1020.3 |
| 20260508154217 | 58 | 145 | 1.0 | 2.0 | 0.00 | 0.00 | 0.00 | 91 | 1020.3 |
| 20260508153714 | 58 | 159 | 0.0 | 0.0 | 0.00 | 0.00 | 0.00 | 92 | 1020.3 |
| 20260508153211 | 58 | 134 | 2.0 | 2.0 | 0.00 | 0.00 | 0.00 | 91 | 1020.5 |
| 20260508152708 | 57 | 80 | 0.0 | 2.0 | 0.00 | 0.00 | 0.00 | 92 | 1020.5 |
| 20260508152203 | 58 | 116 | 0.0 | 1.0 | 0.00 | 0.00 | 0.00 | 92 | 1020.6 |
| 20260508151700 | 57 | 132 | 1.0 | 2.0 | 0.00 | 0.00 | 0.00 | 92 | 1020.4 |
| 20260508151157 | 57 | 74 | 0.0 | 0.0 | 0.00 | 0.00 | 0.00 | 93 | 1020.4 |
| 20260508150654 | 57 | 134 | 0.0 | 0.0 | 0.00 | 0.00 | 0.00 | 93 | 1020.8 |
| 20260508150150 | 57 | 157 | 0.0 | 0.0 | 0.00 | 0.00 | 0.00 | 94 | 1020.5 |
| 20260508145646 | 56 | 107 | 1.0 | 1.0 | 0.00 | 0.00 | 0.00 | 94 | 1020.8 |
| 20260508145142 | 56 | 95 | 0.0 | 0.0 | 0.00 | 0.00 | 0.00 | 94 | 1020.4 |
| 20260508144640 | 56 | 140 | 0.0 | 2.0 | 0.00 | 0.00 | 0.00 | 95 | 1020.6 |
| 20260508144138 | 56 | 127 | 0.0 | 0.0 | 0.00 | 0.00 | 0.00 | 95 | 1020.6 |
| 20260508143635 | 56 | 146 | 0.0 | 2.0 | 0.00 | 0.00 | 0.00 | 96 | 1020.5 |
| 20260508143132 | 56 | 69 | 3.0 | 3.0 | 0.00 | 0.00 | 0.00 | 96 | 1020.4 |
| 20260508142628 | 55 | 97 | 1.0 | 4.0 | 0.00 | 0.00 | 0.00 | 97 | 1020.5 |
| 20260508142125 | 55 | 66 | 4.0 | 6.0 | 0.00 | 0.00 | 0.00 | 98 | 1020.1 |
| 20260508141622 | 55 | 159 | 0.0 | 0.0 | 0.00 | 0.00 | 0.00 | 98 | 1020.4 |
| 20260508141119 | 55 | 159 | 0.0 | 0.0 | 0.00 | 0.00 | 0.00 | 98 | 1020.4 |
| 20260508140616 | 55 | 168 | 0.0 | 0.0 | 0.00 | 0.00 | 0.00 | 98 | 1020.4 |
| 20260508140113 | 55 | 153 | 0.0 | 0.0 | 0.00 | 0.00 | 0.00 | 98 | 1020.2 |
| 20260508135608 | 55 | 158 | 0.0 | 0.0 | 0.00 | 0.00 | 0.00 | 98 | 1020.1 |
| 20260508135104 | 54 | 180 | 1.0 | 1.0 | 0.00 | 0.00 | 0.00 | 98 | 1020.2 |
| 20260508134601 | 55 | 160 | 0.0 | 0.0 | 0.00 | 0.00 | 0.00 | 98 | 1020.0 |
| 20260508134053 | 54 | 169 | 0.0 | 0.0 | 0.00 | 0.00 | 0.00 | 98 | 1020.1 |
| 20260508133550 | 54 | 155 | 0.0 | 2.0 | 0.00 | 0.00 | 0.00 | 98 | 1020.1 |
| 20260508133047 | 54 | 169 | 0.0 | 0.0 | 0.00 | 0.00 | 0.00 | 98 | 1020.0 |
| 20260508132545 | 54 | 170 | 0.0 | 0.0 | 0.00 | 0.00 | 0.00 | 98 | 1019.9 |
| 20260508132041 | 54 | 141 | 0.0 | 0.0 | 0.00 | 0.00 | 0.00 | 98 | 1020.0 |
| 20260508131537 | 53 | 135 | 0.0 | 0.0 | 0.00 | 0.00 | 0.00 | 98 | 1019.9 |
| 20260508131034 | 53 | 127 | 0.0 | 0.0 | 0.00 | 0.00 | 0.00 | 98 | 1020.1 |
| 20260508130531 | 53 | 78 | 0.0 | 1.0 | 0.00 | 0.00 | 0.00 | 98 | 1019.9 |
| 20260508130027 | 53 | 153 | 0.0 | 0.0 | 0.00 | 0.00 | 0.00 | 98 | 1020.0 |
| 20260508125523 | 52 | 143 | 0.0 | 0.0 | 0.00 | 0.00 | 0.00 | 98 | 1019.8 |
| 20260508125021 | 52 | 144 | 0.0 | 0.0 | 0.00 | 0.00 | 0.00 | 97 | 1019.7 |
| 20260508124519 | 52 | 144 | 0.0 | 0.0 | 0.00 | 0.00 | 0.00 | 97 | 1019.7 |
| 20260508124015 | 53 | 144 | 0.0 | 0.0 | 0.00 | 0.00 | 0.00 | 97 | 1019.7 |
| 20260508123514 | 53 | 144 | 0.0 | 0.0 | 0.00 | 0.00 | 0.00 | 97 | 1019.6 |
| 20260508123010 | 53 | 143 | 0.0 | 0.0 | 0.00 | 0.00 | 0.00 | 97 | 1019.4 |
| 20260508122507 | 53 | 143 | 0.0 | 0.0 | 0.00 | 0.00 | 0.00 | 97 | 1019.6 |
| 20260508122004 | 53 | 143 | 0.0 | 0.0 | 0.00 | 0.00 | 0.00 | 97 | 1019.3 |
| 20260508121502 | 54 | 143 | 0.0 | 0.0 | 0.00 | 0.00 | 0.00 | 97 | 1019.6 |
| 20260508121000 | 53 | 158 | 0.0 | 0.0 | 0.00 | 0.00 | 0.00 | 97 | 1019.4 |
| 20260508120457 | 53 | 158 | 0.0 | 0.0 | 0.00 | 0.00 | 0.00 | 96 | 1019.3 |
| 20260508115955 | 54 | 158 | 0.0 | 0.0 | 0.00 | 0.00 | 0.00 | 96 | 1019.1 |
| 20260508115453 | 54 | 158 | 0.0 | 0.0 | 0.00 | 0.00 | 0.00 | 96 | 1019.2 |
| 20260508114949 | 53 | 158 | 0.0 | 0.0 | 0.00 | 0.00 | 0.00 | 96 | 1019.2 |
| 20260508114446 | 54 | 158 | 0.0 | 0.0 | 0.00 | 0.00 | 0.00 | 96 | 1019.1 |
| 20260508113942 | 54 | 158 | 0.0 | 0.0 | 0.00 | 0.00 | 0.00 | 96 | 1019.1 |
| 20260508113440 | 54 | 158 | 0.0 | 0.0 | 0.00 | 0.00 | 0.00 | 96 | 1019.3 |
| 20260508112937 | 54 | 158 | 0.0 | 0.0 | 0.00 | 0.00 | 0.00 | 95 | 1019.2 |
| 20260508112434 | 54 | 158 | 0.0 | 0.0 | 0.00 | 0.00 | 0.00 | 95 | 1019.2 |
| 20260508111930 | 55 | 158 | 0.0 | 0.0 | 0.00 | 0.00 | 0.00 | 95 | 1019.1 |
| 20260508111428 | 55 | 158 | 0.0 | 0.0 | 0.00 | 0.00 | 0.00 | 95 | 1019.0 |
| 20260508110925 | 55 | 158 | 0.0 | 0.0 | 0.00 | 0.00 | 0.00 | 95 | 1019.1 |
| 20260508110423 | 55 | 156 | 0.0 | 0.0 | 0.00 | 0.00 | 0.00 | 95 | 1019.2 |
| 20260508105922 | 55 | 157 | 0.0 | 1.0 | 0.00 | 0.00 | 0.00 | 94 | 1019.1 |
| 20260508105419 | 55 | 163 | 0.0 | 2.0 | 0.00 | 0.00 | 0.00 | 95 | 1019.1 |
| 20260508104916 | 55 | 132 | 0.0 | 0.0 | 0.00 | 0.00 | 0.00 | 94 | 1019.2 |
| 20260508104413 | 55 | 160 | 0.0 | 0.0 | 0.00 | 0.00 | 0.00 | 94 | 1019.0 |
| 20260508103910 | 55 | 127 | 0.0 | 0.0 | 0.00 | 0.00 | 0.00 | 94 | 1019.1 |
| 20260508103407 | 55 | 143 | 0.0 | 0.0 | 0.00 | 0.00 | 0.00 | 94 | 1018.8 |
| 20260508102904 | 55 | 158 | 0.0 | 0.0 | 0.00 | 0.00 | 0.00 | 93 | 1019.0 |
| 20260508102403 | 56 | 161 | 0.0 | 0.0 | 0.00 | 0.00 | 0.00 | 93 | 1019.1 |
| 20260508101859 | 56 | 144 | 0.0 | 1.0 | 0.00 | 0.00 | 0.00 | 93 | 1018.9 |
| 20260508101356 | 56 | 145 | 1.0 | 2.0 | 0.00 | 0.00 | 0.00 | 93 | 1019.1 |
| 20260508100854 | 57 | 142 | 0.0 | 2.0 | 0.00 | 0.00 | 0.00 | 92 | 1019.0 |
| 20260508100353 | 57 | 83 | 1.0 | 2.0 | 0.00 | 0.00 | 0.00 | 92 | 1019.0 |
| 20260508095848 | 57 | 131 | 1.0 | 2.0 | 0.00 | 0.00 | 0.00 | 92 | 1019.0 |
| 20260508095346 | 57 | 171 | 1.0 | 2.0 | 0.00 | 0.00 | 0.00 | 92 | 1019.0 |
| 20260508094842 | 57 | 130 | 0.0 | 1.0 | 0.00 | 0.00 | 0.00 | 92 | 1019.0 |
| 20260508094339 | 57 | 143 | 0.0 | 2.0 | 0.00 | 0.00 | 0.00 | 92 | 1019.1 |
| 20260508093836 | 57 | 144 | 0.0 | 1.0 | 0.00 | 0.00 | 0.00 | 92 | 1019.0 |
| 20260508093334 | 57 | 178 | 1.0 | 2.0 | 0.00 | 0.00 | 0.00 | 92 | 1019.1 |
| 20260508092831 | 57 | 132 | 0.0 | 1.0 | 0.00 | 0.00 | 0.00 | 91 | 1018.9 |
| 20260508092329 | 57 | 119 | 1.0 | 1.0 | 0.00 | 0.00 | 0.00 | 91 | 1018.9 |
| 20260508091827 | 57 | 159 | 1.0 | 2.0 | 0.00 | 0.00 | 0.00 | 91 | 1018.9 |
| 20260508091323 | 57 | 155 | 0.0 | 2.0 | 0.00 | 0.00 | 0.00 | 91 | 1019.2 |
| 20260508090821 | 58 | 178 | 2.0 | 2.0 | 0.00 | 0.00 | 0.00 | 90 | 1019.0 |
| 20260508090320 | 58 | 148 | 0.0 | 2.0 | 0.00 | 0.00 | 0.00 | 90 | 1019.2 |
| 20260508085814 | 58 | 121 | 3.0 | 3.0 | 0.00 | 0.00 | 0.00 | 89 | 1019.0 |
| 20260508085312 | 59 | 143 | 3.0 | 4.0 | 0.00 | 0.00 | 0.00 | 89 | 1019.1 |
| 20260508084808 | 59 | 149 | 1.0 | 3.0 | 0.00 | 0.00 | 0.00 | 89 | 1019.1 |
| 20260508084305 | 59 | 128 | 2.0 | 4.0 | 0.00 | 0.00 | 0.00 | 89 | 1019.4 |
| 20260508083803 | 59 | 153 | 0.0 | 3.0 | 0.00 | 0.00 | 0.00 | 88 | 1019.3 |
| 20260508083300 | 59 | 127 | 2.0 | 6.0 | 0.00 | 0.00 | 0.00 | 88 | 1019.4 |
| 20260508082800 | 59 | 147 | 3.0 | 4.0 | 0.00 | 0.00 | 0.00 | 88 | 1019.3 |
| 20260508082258 | 59 | 109 | 0.0 | 2.0 | 0.00 | 0.00 | 0.00 | 87 | 1019.6 |
| 20260508081755 | 59 | 112 | 1.0 | 3.0 | 0.00 | 0.00 | 0.00 | 88 | 1019.4 |
| 20260508081251 | 59 | 172 | 0.0 | 0.0 | 0.00 | 0.00 | 0.00 | 88 | 1019.4 |
| 20260508080748 | 59 | 137 | 0.0 | 0.0 | 0.00 | 0.00 | 0.00 | 88 | 1019.6 |
| 20260508080247 | 58 | 153 | 0.0 | 0.0 | 0.00 | 0.00 | 0.00 | 89 | 1019.4 |
| 20260508075742 | 58 | 145 | 0.0 | 0.0 | 0.00 | 0.00 | 0.00 | 89 | 1019.3 |
| 20260508075239 | 58 | 163 | 0.0 | 0.0 | 0.00 | 0.00 | 0.00 | 89 | 1019.6 |
| 20260508074737 | 57 | 182 | 0.0 | 0.0 | 0.00 | 0.00 | 0.00 | 90 | 1019.6 |
| 20260508074235 | 57 | 188 | 0.0 | 0.0 | 0.00 | 0.00 | 0.00 | 91 | 1019.7 |
| 20260508073731 | 57 | 186 | 0.0 | 0.0 | 0.00 | 0.00 | 0.00 | 91 | 1019.7 |
| 20260508073230 | 56 | 187 | 0.0 | 0.0 | 0.00 | 0.00 | 0.00 | 91 | 1019.7 |
| 20260508072725 | 56 | 187 | 0.0 | 0.0 | 0.00 | 0.00 | 0.00 | 91 | 1019.4 |
| 20260508072222 | 56 | 188 | 0.0 | 0.0 | 0.00 | 0.00 | 0.00 | 90 | 1019.7 |
| 20260508071719 | 56 | 188 | 0.0 | 0.0 | 0.00 | 0.00 | 0.00 | 90 | 1019.7 |
| 20260508071218 | 57 | 188 | 0.0 | 0.0 | 0.00 | 0.00 | 0.00 | 89 | 1019.3 |
| 20260508070715 | 57 | 188 | 0.0 | 0.0 | 0.00 | 0.00 | 0.00 | 89 | 1019.4 |
| 20260508070214 | 57 | 188 | 0.0 | 0.0 | 0.00 | 0.00 | 0.00 | 88 | 1019.2 |
| 20260508065710 | 58 | 189 | 0.0 | 0.0 | 0.00 | 0.00 | 0.00 | 87 | 1019.4 |
| 20260508065209 | 58 | 189 | 0.0 | 0.0 | 0.00 | 0.00 | 0.00 | 87 | 1019.4 |
| 20260508064706 | 59 | 188 | 0.0 | 0.0 | 0.00 | 0.00 | 0.00 | 86 | 1019.3 |
| 20260508064204 | 59 | 272 | 1.0 | 6.0 | 0.00 | 0.00 | 0.00 | 86 | 1019.1 |
| 20260508063701 | 58 | 190 | 2.0 | 3.0 | 0.00 | 0.00 | 0.00 | 87 | 1019.0 |
| 20260508063159 | 57 | 196 | 0.0 | 1.0 | 0.00 | 0.00 | 0.00 | 88 | 1019.1 |
| 20260508062656 | 57 | 180 | 0.0 | 0.0 | 0.00 | 0.00 | 0.00 | 88 | 1019.1 |
| 20260508062153 | 57 | 190 | 0.0 | 0.0 | 0.00 | 0.00 | 0.00 | 88 | 1019.2 |
| 20260508061649 | 57 | 178 | 0.0 | 0.0 | 0.00 | 0.00 | 0.00 | 88 | 1018.9 |
| 20260508061147 | 57 | 179 | 0.0 | 0.0 | 0.00 | 0.00 | 0.00 | 88 | 1018.9 |
| 20260508060644 | 57 | 180 | 0.0 | 0.0 | 0.00 | 0.00 | 0.00 | 89 | 1019.0 |
| 20260508060141 | 57 | 180 | 0.0 | 0.0 | 0.00 | 0.00 | 0.00 | 88 | 1019.1 |
| 20260508055637 | 58 | 181 | 0.0 | 0.0 | 0.00 | 0.00 | 0.00 | 87 | 1019.0 |
| 20260508055134 | 58 | 177 | 0.0 | 0.0 | 0.00 | 0.00 | 0.00 | 87 | 1019.1 |
| 20260508054630 | 59 | 164 | 0.0 | 0.0 | 0.00 | 0.00 | 0.00 | 86 | 1018.9 |
| 20260508054128 | 59 | 164 | 0.0 | 0.0 | 0.00 | 0.00 | 0.00 | 86 | 1019.2 |
| 20260508053624 | 59 | 184 | 0.0 | 0.0 | 0.00 | 0.00 | 0.00 | 86 | 1018.8 |